Time,TemperatureF,DewpointF,PressureIn,WindDirection,WindDirectionDegrees,WindSpeedMPH,WindSpeedGustMPH,Humidity,HourlyPrecipIn,Conditions,Clouds,dailyrainin,SolarRadiationWatts/m^2,SoftwareType,DateUTC
2013-01-03 00:02:00,14.0,11.0,-100.00,SSW,193,3.0,5.0,87,0.00,,,-99.99,0.000000,,2013-01-03 06:02:00,
2013-01-03 00:33:00,15.0,12.0,-100.00,SSW,210,2.0,4.0,87,0.00,,,0.00,0.000000,,2013-01-03 06:33:00,
2013-01-03 00:42:00,15.0,12.0,-100.00,SSW,210,2.0,4.0,87,0.00,,,0.00,0.000000,,2013-01-03 06:42:00,
2013-01-03 00:53:00,15.0,12.0,-100.00,SSW,210,2.0,4.0,87,0.00,,,0.00,0.000000,,2013-01-03 06:53:00,
2013-01-03 01:02:00,15.0,12.0,-100.00,SSW,210,2.0,4.0,87,0.00,,,0.00,0.000000,,2013-01-03 07:02:00,
2013-01-03 01:33:00,15.0,12.0,-100.00,SSW,211,2.0,4.0,87,0.00,,,0.00,0.000000,,2013-01-03 07:33:00,
2013-01-03 01:43:00,15.0,12.0,-100.00,SSW,211,2.0,4.0,87,0.00,,,0.00,0.000000,,2013-01-03 07:43:00,
2013-01-03 01:53:00,15.0,12.0,-100.00,SSW,211,2.0,4.0,87,0.00,,,0.00,0.000000,,2013-01-03 07:53:00,
2013-01-03 02:02:00,15.0,12.0,-100.00,SSW,211,2.0,4.0,87,0.00,,,0.00,0.000000,,2013-01-03 08:02:00,
2013-01-03 02:33:00,15.0,12.0,-100.00,SSW,202,2.0,4.0,87,0.00,,,0.00,0.000000,,2013-01-03 08:33:00,
2013-01-03 02:43:00,15.0,12.0,-100.00,SSW,202,2.0,4.0,87,0.00,,,0.00,0.000000,,2013-01-03 08:43:00,
2013-01-03 02:53:00,15.0,12.0,-100.00,SSW,202,2.0,4.0,87,0.00,,,0.00,0.000000,,2013-01-03 08:53:00,
2013-01-03 03:02:00,15.0,12.0,-100.00,SSW,202,2.0,4.0,87,0.00,,,0.00,0.000000,,2013-01-03 09:02:00,
2013-01-03 03:34:00,16.0,13.0,-100.00,SW,232,3.0,4.0,88,0.00,,,0.00,0.000000,,2013-01-03 09:34:00,
2013-01-03 03:43:00,16.0,13.0,-100.00,SW,232,3.0,4.0,88,0.00,,,0.00,0.000000,,2013-01-03 09:43:00,
2013-01-03 03:53:00,16.0,13.0,-100.00,SW,232,3.0,4.0,88,0.00,,,0.00,0.000000,,2013-01-03 09:53:00,
2013-01-03 04:02:00,16.0,13.0,-100.00,SW,232,3.0,4.0,88,0.00,,,0.00,0.000000,,2013-01-03 10:02:00,
2013-01-03 04:33:00,20.0,16.0,-100.00,WNW,289,4.0,10.0,86,0.00,,,0.00,0.000000,,2013-01-03 10:33:00,
2013-01-03 04:43:00,20.0,16.0,-100.00,WNW,289,4.0,10.0,86,0.00,,,0.00,0.000000,,2013-01-03 10:43:00,
2013-01-03 04:53:00,20.0,16.0,-100.00,WNW,289,4.0,10.0,86,0.00,,,0.00,0.000000,,2013-01-03 10:53:00,
2013-01-03 05:02:00,20.0,16.0,-100.00,WNW,289,4.0,10.0,86,0.00,,,0.00,0.000000,,2013-01-03 11:02:00,
2013-01-03 05:33:00,19.0,14.0,-100.00,NW,308,6.0,12.0,80,0.00,,,0.00,0.000000,,2013-01-03 11:33:00,
2013-01-03 05:43:00,19.0,14.0,-100.00,NW,308,6.0,12.0,80,0.00,,,0.00,0.000000,,2013-01-03 11:43:00,
2013-01-03 05:53:00,19.0,14.0,-100.00,NW,308,6.0,12.0,80,0.00,,,0.00,0.000000,,2013-01-03 11:53:00,
2013-01-03 06:02:00,19.0,14.0,-100.00,NW,308,6.0,12.0,80,0.00,,,0.00,0.000000,,2013-01-03 12:02:00,
2013-01-03 06:33:00,18.0,13.0,-100.00,NW,311,7.0,12.0,79,0.00,,,0.00,0.000000,,2013-01-03 12:33:00,
2013-01-03 06:43:00,18.0,13.0,-100.00,NW,311,7.0,12.0,79,0.00,,,0.00,0.000000,,2013-01-03 12:43:00,
2013-01-03 06:53:00,18.0,13.0,-100.00,NW,311,7.0,12.0,79,0.00,,,0.00,0.000000,,2013-01-03 12:53:00,
2013-01-03 07:02:00,18.0,13.0,-100.00,NW,311,7.0,12.0,79,0.00,,,0.00,0.000000,,2013-01-03 13:02:00,
2013-01-03 07:33:00,17.0,12.0,-100.00,NW,318,6.0,13.0,80,0.00,,,0.00,0.000000,,2013-01-03 13:33:00,
2013-01-03 07:43:00,17.0,12.0,-100.00,NW,318,6.0,13.0,80,0.00,,,0.00,0.000000,,2013-01-03 13:43:00,
2013-01-03 07:53:00,17.0,12.0,-100.00,NW,318,6.0,13.0,80,0.00,,,0.00,0.000000,,2013-01-03 13:53:00,
2013-01-03 08:03:00,17.0,12.0,-100.00,NW,318,6.0,13.0,80,0.00,,,0.00,0.000000,,2013-01-03 14:03:00,
2013-01-03 08:33:00,16.0,11.0,-100.00,NNW,330,7.0,12.0,79,0.00,,,0.00,1.000000,,2013-01-03 14:33:00,
2013-01-03 08:43:00,16.0,11.0,-100.00,NNW,330,7.0,12.0,79,0.00,,,0.00,1.000000,,2013-01-03 14:43:00,
2013-01-03 08:53:00,16.0,11.0,-100.00,NNW,330,7.0,12.0,79,0.00,,,0.00,1.000000,,2013-01-03 14:53:00,
2013-01-03 09:03:00,16.0,11.0,-100.00,NNW,330,7.0,12.0,79,0.00,,,0.00,1.000000,,2013-01-03 15:03:00,
2013-01-03 09:34:00,16.0,9.0,-100.00,NNW,327,4.0,12.0,75,0.00,,,0.00,22.000000,,2013-01-03 15:34:00,
2013-01-03 09:43:00,16.0,9.0,-100.00,NNW,327,4.0,12.0,75,0.00,,,0.00,22.000000,,2013-01-03 15:43:00,
2013-01-03 09:53:00,16.0,9.0,-100.00,NNW,327,4.0,12.0,75,0.00,,,0.00,22.000000,,2013-01-03 15:53:00,
2013-01-03 10:03:00,16.0,9.0,-100.00,NNW,327,4.0,12.0,75,0.00,,,0.00,22.000000,,2013-01-03 16:03:00,
2013-01-03 10:34:00,16.0,9.0,-100.00,NW,305,7.0,14.0,72,0.00,,,0.00,68.000000,,2013-01-03 16:34:00,
2013-01-03 10:43:00,16.0,9.0,-100.00,NW,305,7.0,14.0,72,0.00,,,0.00,68.000000,,2013-01-03 16:43:00,
2013-01-03 10:53:00,16.0,9.0,-100.00,NW,305,7.0,14.0,72,0.00,,,0.00,68.000000,,2013-01-03 16:53:00,
2013-01-03 11:03:00,16.0,9.0,-100.00,NW,305,7.0,14.0,72,0.00,,,0.00,68.000000,,2013-01-03 17:03:00,
2013-01-03 11:33:00,17.0,8.0,-100.00,WNW,291,5.0,11.0,68,0.00,,,0.00,136.000000,,2013-01-03 17:33:00,
2013-01-03 11:43:00,17.0,8.0,-100.00,WNW,291,5.0,11.0,68,0.00,,,0.00,136.000000,,2013-01-03 17:43:00,
2013-01-03 11:53:00,17.0,8.0,-100.00,WNW,291,5.0,11.0,68,0.00,,,0.00,136.000000,,2013-01-03 17:53:00,
2013-01-03 12:03:00,17.0,8.0,-100.00,WNW,291,5.0,11.0,68,0.00,,,0.00,136.000000,,2013-01-03 18:03:00,
2013-01-03 12:33:00,19.0,8.0,-100.00,WSW,257,6.0,11.0,62,0.00,,,0.00,291.000000,,2013-01-03 18:33:00,
2013-01-03 12:43:00,19.0,8.0,-100.00,WSW,257,6.0,11.0,62,0.00,,,0.00,291.000000,,2013-01-03 18:43:00,
2013-01-03 12:53:00,19.0,8.0,-100.00,WSW,257,6.0,11.0,62,0.00,,,0.00,291.000000,,2013-01-03 18:53:00,
2013-01-03 13:03:00,19.0,8.0,-100.00,WSW,257,6.0,11.0,62,0.00,,,0.00,291.000000,,2013-01-03 19:03:00,
2013-01-03 13:56:00,20.0,8.0,-100.00,West,260,8.0,13.0,60,0.00,,,0.00,358.000000,,2013-01-03 19:56:00,
2013-01-03 14:03:00,20.0,8.0,-100.00,West,260,8.0,13.0,60,0.00,,,0.00,358.000000,,2013-01-03 20:03:00,
2013-01-03 14:33:00,19.0,6.0,-100.00,WSW,240,8.0,14.0,57,0.00,,,0.00,320.000000,,2013-01-03 20:33:00,
2013-01-03 14:43:00,19.0,6.0,-100.00,WSW,240,8.0,14.0,57,0.00,,,0.00,320.000000,,2013-01-03 20:43:00,
2013-01-03 14:53:00,19.0,6.0,-100.00,WSW,240,8.0,14.0,57,0.00,,,0.00,320.000000,,2013-01-03 20:53:00,
2013-01-03 15:02:00,19.0,6.0,-100.00,WSW,240,8.0,14.0,57,0.00,,,0.00,320.000000,,2013-01-03 21:02:00,
2013-01-03 15:38:00,18.0,5.0,-100.00,SW,231,8.0,14.0,55,0.00,,,0.00,236.000000,,2013-01-03 21:38:00,
2013-01-03 15:50:00,18.0,5.0,-100.00,SW,231,8.0,14.0,55,0.00,,,0.00,236.000000,,2013-01-03 21:50:00,
2013-01-03 16:03:00,18.0,5.0,-100.00,SW,231,8.0,14.0,55,0.00,,,0.00,236.000000,,2013-01-03 22:03:00,
2013-01-03 16:33:00,15.0,0.0,-100.00,SW,230,6.0,15.0,50,0.00,,,0.00,117.000000,,2013-01-03 22:33:00,
2013-01-03 16:43:00,15.0,0.0,-100.00,SW,230,6.0,15.0,50,0.00,,,0.00,117.000000,,2013-01-03 22:43:00,
2013-01-03 16:52:00,15.0,0.0,-100.00,SW,230,6.0,15.0,50,0.00,,,0.00,117.000000,,2013-01-03 22:52:00,
2013-01-03 17:02:00,15.0,0.0,-100.00,SW,230,6.0,15.0,50,0.00,,,0.00,117.000000,,2013-01-03 23:02:00,
2013-01-03 17:33:00,13.0,1.0,-100.00,SW,232,6.0,12.0,57,0.00,,,0.00,9.000000,,2013-01-03 23:33:00,
2013-01-03 17:43:00,13.0,1.0,-100.00,SW,232,6.0,12.0,57,0.00,,,0.00,9.000000,,2013-01-03 23:43:00,
2013-01-03 17:53:00,13.0,1.0,-100.00,SW,232,6.0,12.0,57,0.00,,,0.00,9.000000,,2013-01-03 23:53:00,
2013-01-03 18:03:00,13.0,1.0,-100.00,SW,232,6.0,12.0,57,0.00,,,0.00,9.000000,,2013-01-04 00:03:00,
2013-01-03 18:33:00,11.0,1.0,-100.00,SSW,211,5.0,9.0,63,0.00,,,0.00,0.000000,,2013-01-04 00:33:00,
2013-01-03 18:42:00,11.0,1.0,-100.00,SSW,211,5.0,9.0,63,0.00,,,0.00,0.000000,,2013-01-04 00:42:00,
2013-01-03 18:53:00,11.0,1.0,-100.00,SSW,211,5.0,9.0,63,0.00,,,0.00,0.000000,,2013-01-04 00:53:00,
2013-01-03 19:02:00,11.0,1.0,-100.00,SSW,211,5.0,9.0,63,0.00,,,0.00,0.000000,,2013-01-04 01:02:00,
2013-01-03 19:33:00,11.0,3.0,-100.00,SW,215,6.0,13.0,68,0.00,,,0.00,0.000000,,2013-01-04 01:33:00,
2013-01-03 19:42:00,11.0,3.0,-100.00,SW,215,6.0,13.0,68,0.00,,,0.00,0.000000,,2013-01-04 01:42:00,
2013-01-03 19:52:00,11.0,3.0,-100.00,SW,215,6.0,13.0,68,0.00,,,0.00,0.000000,,2013-01-04 01:52:00,
2013-01-03 20:02:00,11.0,3.0,-100.00,SW,215,6.0,13.0,68,0.00,,,0.00,0.000000,,2013-01-04 02:02:00,
2013-01-03 20:33:00,11.0,4.0,-100.00,SSW,213,6.0,14.0,74,0.00,,,0.00,0.000000,,2013-01-04 02:33:00,
2013-01-03 20:42:00,11.0,4.0,-100.00,SSW,213,6.0,14.0,74,0.00,,,0.00,0.000000,,2013-01-04 02:42:00,
2013-01-03 20:53:00,11.0,4.0,-100.00,SSW,213,6.0,14.0,74,0.00,,,0.00,0.000000,,2013-01-04 02:53:00,
2013-01-03 21:02:00,11.0,4.0,-100.00,SSW,213,6.0,14.0,74,0.00,,,0.00,0.000000,,2013-01-04 03:02:00,
2013-01-03 21:33:00,10.0,5.0,-100.00,SSW,206,6.0,12.0,78,0.00,,,0.00,0.000000,,2013-01-04 03:33:00,
2013-01-03 21:43:00,10.0,5.0,-100.00,SSW,206,6.0,12.0,78,0.00,,,0.00,0.000000,,2013-01-04 03:43:00,
2013-01-03 21:53:00,10.0,5.0,-100.00,SSW,206,6.0,12.0,78,0.00,,,0.00,0.000000,,2013-01-04 03:53:00,
2013-01-03 22:02:00,10.0,5.0,-100.00,SSW,206,6.0,12.0,78,0.00,,,0.00,0.000000,,2013-01-04 04:02:00,
2013-01-03 22:32:00,11.0,6.0,-100.00,SSW,212,7.0,11.0,81,0.00,,,0.00,0.000000,,2013-01-04 04:32:00,
2013-01-03 22:42:00,11.0,6.0,-100.00,SSW,212,7.0,11.0,81,0.00,,,0.00,0.000000,,2013-01-04 04:42:00,
2013-01-03 22:52:00,11.0,6.0,-100.00,SSW,212,7.0,11.0,81,0.00,,,0.00,0.000000,,2013-01-04 04:52:00,
2013-01-03 23:03:00,11.0,6.0,-100.00,SSW,212,7.0,11.0,81,0.00,,,0.00,0.000000,,2013-01-04 05:03:00,
2013-01-03 23:33:00,11.0,7.0,-100.00,SSW,204,8.0,14.0,83,0.00,,,0.00,0.000000,,2013-01-04 05:33:00,
2013-01-03 23:42:00,11.0,7.0,-100.00,SSW,204,8.0,14.0,83,0.00,,,0.00,0.000000,,2013-01-04 05:42:00,
2013-01-03 23:53:00,11.0,7.0,-100.00,SSW,204,8.0,14.0,83,0.00,,,0.00,0.000000,,2013-01-04 05:53:00,